Brookings, OR

7:02 PM PDT on July 26, 2017 (GMT -0700)
Brookings State

Weather History for KBOK - April, 2013

Change the Weather History Date:

Friday, April 26, 2013

  Actual Average Record
Temperature  
Mean Temperature 48 °F -  
Max Temperature 51 °F 61 °F 77 °F (1935)
Min Temperature 44 °F 43 °F 34 °F (1970)
Degree Days  
Heating Degree Days 18    
Moisture  
Dew Point 47 °F    
Average Humidity 99    
Maximum Humidity 100    
Minimum Humidity 88    
Precipitation  
Precipitation 0.00 in - - ()
Sea Level Pressure  
Sea Level Pressure 30.26 in    
Wind  
Wind Speed 2 mph (WNW)    
Max Wind Speed 8 mph    
Max Gust Speed -    
Visibility 4 miles    
Events Fog    
Averages and records for this station are not official NWS values.
T = Trace of Precipitation, MM = Missing Value Source: NWS Daily Summary

Daily Weather History Graph

Daily Weather History Graph

Search for Another Location

Airport or City:

Trip Planner

Search our weather history database for the weather conditions in past years. The results will help you decide how hot, cold, wet, or windy it might be!

Date:

Astronomy

Apr. 26, 2013 Rise Set
Actual Time 6:19 AM PDT 8:10 PM PDT
Civil Twilight 5:49 AM PDT 8:41 PM PDT
Nautical Twilight 5:12 AM PDT 9:17 PM PDT
Astronomical Twilight 4:33 AM PDT 9:57 PM PDT
Moon 9:41 PM PDT (4/26) 6:50 AM PDT (4/26)
Length of Visible Light 14h 51m
Length of Day
13h 51m
Full, 99% of the Moon is Illuminated
Apr 26
Full
May 2
Last Quarter
May 9
New
May 17
First Quarter
May 24
Full

Hourly Weather History & Observations

Time (PDT) Temp. Windchill Dew Point Humidity Pressure Visibility Wind Dir Wind Speed Gust Speed Precip Events Conditions
12:27 AM 46.4 °F - 46.4 °F 100% 30.18 in 8.0 mi Calm Calm - N/A   Overcast
12:56 AM 46.9 °F - 46.9 °F 100% 30.19 in 8.0 mi SE 3.5 mph - N/A   Overcast
1:56 AM 46.9 °F - 46.9 °F 100% 30.19 in 7.0 mi Calm Calm - N/A   Overcast
2:56 AM 46.9 °F - 46.9 °F 100% 30.19 in 6.0 mi Calm Calm - N/A   Overcast
3:11 AM 46.4 °F - 46.4 °F 100% 30.18 in 7.0 mi Calm Calm - N/A   Overcast
3:56 AM 46.9 °F - 46.9 °F 100% 30.21 in 4.0 mi NNW 3.5 mph - N/A   Overcast
4:56 AM 45.9 °F 44.6 °F 45.9 °F 100% 30.19 in 5.0 mi ENE 3.5 mph - N/A   Overcast
5:56 AM 45.9 °F - 45.9 °F 100% 30.20 in 6.0 mi Calm Calm - N/A   Overcast
6:56 AM 45.9 °F - 45.9 °F 100% 30.21 in 5.0 mi Calm Calm - N/A   Overcast
7:56 AM 45.9 °F 44.6 °F - N/A% 30.22 in 5.0 mi North 3.5 mph - N/A   Haze
8:56 AM 46.9 °F - 46.9 °F 100% 30.23 in 7.0 mi Calm Calm - N/A   Overcast
9:37 AM 46.4 °F 43.5 °F 46.4 °F 100% 30.23 in 2.0 mi West 5.8 mph - N/A   Overcast
9:49 AM 46.4 °F 43.5 °F 46.4 °F 100% 30.23 in 2.5 mi WNW 5.8 mph - N/A   Overcast
9:56 AM 46.9 °F - 46.9 °F 100% 30.24 in 0.8 mi Variable 4.6 mph - N/A   Overcast
10:26 AM 46.4 °F 42.4 °F 46.4 °F 100% 30.24 in 0.5 mi WNW 8.1 mph - N/A Fog Fog
10:40 AM 46.4 °F 44.3 °F 46.4 °F 100% 30.24 in 1.0 mi Variable 4.6 mph - N/A   Overcast
10:56 AM 46.9 °F - 46.9 °F 100% 30.25 in 1.0 mi WNW 5.8 mph - N/A   Overcast
11:10 AM 46.4 °F 45.2 °F 46.4 °F 100% 30.24 in 1.5 mi Variable 3.5 mph - N/A   Overcast
11:25 AM 46.4 °F - 46.4 °F 100% 30.24 in 3.0 mi Calm Calm - N/A   Overcast
11:42 AM 48.2 °F - 48.2 °F 100% 30.24 in 5.0 mi SSE 4.6 mph - N/A   Overcast
11:56 AM 48.9 °F - 48.9 °F 100% 30.25 in 7.0 mi South 4.6 mph - N/A   Overcast
12:56 PM 48.9 °F - 48.9 °F 100% 30.27 in 6.0 mi Variable 3.5 mph - N/A   Overcast
1:27 PM 51.8 °F - 48.2 °F 88% 30.26 in 8.0 mi Variable 6.9 mph - N/A   Overcast
1:35 PM 51.8 °F - 48.2 °F 88% 30.27 in 8.0 mi Variable 6.9 mph - N/A   Overcast
1:56 PM 48.9 °F - 48.9 °F 100% 30.28 in 7.0 mi Variable 4.6 mph - N/A   Overcast
2:56 PM 48.9 °F - 48.9 °F 100% 30.30 in 6.0 mi WSW 5.8 mph - N/A   Overcast
3:56 PM 48.9 °F - 48.9 °F 100% 30.29 in 5.0 mi Variable 4.6 mph - N/A   Overcast
4:56 PM 47.8 °F - 47.8 °F 100% 30.29 in 5.0 mi Variable 3.5 mph - N/A   Overcast
5:56 PM 47.8 °F - 47.8 °F 100% 30.29 in 6.0 mi Variable 3.5 mph - N/A   Overcast
6:56 PM 46.9 °F - 46.9 °F 100% 30.28 in 6.0 mi Variable 3.5 mph - N/A   Overcast
7:49 PM 46.4 °F - 46.4 °F 100% 30.28 in 4.0 mi Calm Calm - N/A   Overcast
7:56 PM 46.9 °F - 46.9 °F 100% 30.29 in 5.0 mi South 3.5 mph - N/A   Overcast
8:29 PM 46.4 °F - 46.4 °F 100% 30.28 in 2.5 mi Calm Calm - N/A   Overcast
8:38 PM 46.4 °F - 46.4 °F 100% 30.28 in 3.0 mi Calm Calm - N/A   Overcast
8:47 PM 46.4 °F - - N/A% 30.28 in 1.8 mi Calm Calm - N/A   Overcast
8:56 PM 45.9 °F - - N/A% 30.29 in 1.8 mi Calm Calm - N/A   Overcast
9:03 PM 46.4 °F 45.2 °F - N/A% 30.28 in 1.0 mi WSW 3.5 mph - N/A   Overcast
9:10 PM 46.4 °F - - N/A% 30.28 in 0.8 mi Calm Calm - N/A   Overcast
9:15 PM 46.4 °F - - N/A% 30.28 in 1.2 mi Calm Calm - N/A   Overcast
9:23 PM 46.4 °F - - N/A% 30.28 in 1.8 mi Calm Calm - N/A   Overcast
9:33 PM 46.4 °F - - N/A% 30.29 in 1.0 mi Calm Calm - N/A   Overcast
9:41 PM 46.4 °F 45.2 °F - N/A% 30.29 in 1.5 mi North 3.5 mph - N/A   Overcast
9:46 PM 46.4 °F - - N/A% 30.29 in 1.0 mi Calm Calm - N/A   Overcast
9:56 PM 45.9 °F 44.6 °F - N/A% 30.30 in 0.8 mi NW 3.5 mph - N/A   Overcast
10:08 PM 46.4 °F 44.3 °F - N/A% 30.29 in 0.5 mi NW 4.6 mph - N/A Fog Fog
10:18 PM 46.4 °F 44.3 °F - N/A% 30.30 in 1.0 mi NW 4.6 mph - N/A   Overcast
10:38 PM 46.4 °F 43.5 °F - N/A% 30.30 in 0.8 mi NNW 5.8 mph - N/A   Overcast
10:56 PM 45.9 °F 42.9 °F - N/A% 30.31 in 0.5 mi NNW 5.8 mph - N/A Fog Fog
11:35 PM 46.4 °F - - N/A% 30.30 in 0.8 mi Calm Calm - N/A   Overcast
11:41 PM 44.6 °F - - N/A% 30.30 in 1.2 mi Calm Calm - N/A   Overcast
11:49 PM 44.6 °F - - N/A% 30.29 in 1.0 mi Calm Calm - N/A   Overcast
11:56 PM 45.0 °F - - N/A% 30.30 in 2.0 mi Calm Calm - N/A   Overcast